When you browse on this site, cookies collect data to enhance your experience and personalize the content and advertising you see.
Visit our Privacy Policy to learn more. By continuing to use the site, you agree to this use of cookies and data.
  • In Latvia
  • List of Countries
  • For 7 days
  • Water Temperature
  • Weather Map
  • Weather Widgets
  • user-avatar
    Login

    Hourly Weather Jelgava

    Today, 23 September, Monday

    Time Temperature Precipitation Wind Pressure Humidity
    00:00 +4°C° 0 mm 2 mps 766 mmHg 84%
    01:00 +4°C° 0 mm 1 mps 766 mmHg 85%
    02:00 +4°C° 0 mm 1 mps 766 mmHg 85%
    03:00 +3°C° 0 mm 1 mps 766 mmHg 85%
    04:00 +3°C° 0 mm 1 mps 767 mmHg 85%
    05:00 +2°C° 0 mm 0 mps 767 mmHg 86%
    06:00 +3°C° 0 mm 0 mps 767 mmHg 84%
    07:00 +4°C° 0 mm 0 mps 767 mmHg 81%
    08:00 +5°C° 0 mm 0 mps 768 mmHg 78%
    09:00 +6°C° 0 mm 0 mps 768 mmHg 72%
    10:00 +8°C° 0 mm 0 mps 768 mmHg 65%
    11:00 +10°C° 0 mm 0 mps 768 mmHg 59%
    12:00 +12°C° 0 mm 1 mps 767 mmHg 55%
    13:00 +12°C° 0 mm 1 mps 767 mmHg 52%
    14:00 +13°C° 0 mm 1 mps 767 mmHg 48%
    15:00 +12°C° 0 mm 1 mps 767 mmHg 51%
    16:00 +12°C° 0 mm 1 mps 766 mmHg 55%
    17:00 +11°C° 0 mm 1 mps 766 mmHg 58%
    18:00 +9°C° 0 mm 1 mps 766 mmHg 63%
    19:00 +7°C° 0 mm 0 mps 767 mmHg 67%
    20:00 +5°C° 0 mm 0 mps 767 mmHg 72%
    21:00 +5°C° 0 mm 0 mps 767 mmHg 72%
    22:00 +6°C° 0 mm 1 mps 766 mmHg 72%
    23:00 +6°C° 0 mm 1 mps 766 mmHg 72%

    Tomorrow, 24 September, Tuesday

    Time Temperature Precipitation Wind Pressure Humidity
    00:00 +5°C° 0 mm 1 mps 766 mmHg 73%
    01:00 +5°C° 0 mm 1 mps 766 mmHg 74%
    02:00 +5°C° 0 mm 1 mps 767 mmHg 74%
    03:00 +5°C° 0 mm 1 mps 766 mmHg 74%
    04:00 +4°C° 0 mm 1 mps 766 mmHg 75%
    05:00 +4°C° 0 mm 1 mps 766 mmHg 75%
    06:00 +5°C° 0 mm 1 mps 766 mmHg 73%
    07:00 +6°C° 0 mm 1 mps 766 mmHg 70%
    08:00 +6°C° 0 mm 1 mps 766 mmHg 68%
    09:00 +8°C° 0 mm 1 mps 765 mmHg 63%
    10:00 +9°C° 0 mm 1 mps 765 mmHg 59%
    11:00 +11°C° 0 mm 1 mps 765 mmHg 54%
    12:00 +11°C° 0 mm 1 mps 765 mmHg 53%
    13:00 +12°C° 0 mm 2 mps 764 mmHg 51%
    14:00 +12°C° 0 mm 2 mps 764 mmHg 50%
    15:00 +12°C° 0 mm 2 mps 764 mmHg 53%
    16:00 +12°C° 0 mm 2 mps 764 mmHg 57%
    17:00 +11°C° 0 mm 1 mps 763 mmHg 60%
    18:00 +10°C° 0 mm 1 mps 763 mmHg 63%
    19:00 +8°C° 0 mm 2 mps 763 mmHg 66%
    20:00 +6°C° 0 mm 2 mps 763 mmHg 69%
    21:00 +6°C° 0 mm 2 mps 763 mmHg 70%
    22:00 +6°C° 0 mm 2 mps 763 mmHg 72%
    23:00 +5°C° 0 mm 2 mps 763 mmHg 73%

    Day after tomorrow, 25 September, Wednesday

    Time Temperature Precipitation Wind Pressure Humidity
    00:00 +5°C° 0 mm 2 mps 763 mmHg 73%
    01:00 +5°C° 0 mm 2 mps 763 mmHg 73%
    02:00 +5°C° 0 mm 2 mps 762 mmHg 73%
    03:00 +5°C° 0 mm 2 mps 762 mmHg 73%
    04:00 +5°C° 0 mm 2 mps 762 mmHg 73%
    05:00 +5°C° 0 mm 2 mps 762 mmHg 74%
    06:00 +5°C° 0 mm 2 mps 761 mmHg 73%
    07:00 +5°C° 0 mm 3 mps 761 mmHg 71%
    08:00 +5°C° 0 mm 3 mps 761 mmHg 70%
    09:00 +8°C° 0 mm 3 mps 761 mmHg 66%
    10:00 +9°C° 0 mm 3 mps 761 mmHg 62%
    11:00 +11°C° 0 mm 3 mps 761 mmHg 58%
    12:00 +12°C° 0 mm 3 mps 761 mmHg 55%
    13:00 +13°C° 0 mm 3 mps 761 mmHg 53%
    14:00 +13°C° 0 mm 3 mps 760 mmHg 50%
    15:00 +13°C° 0 mm 3 mps 760 mmHg 54%
    16:00 +12°C° 0 mm 3 mps 760 mmHg 58%
    17:00 +12°C° 0 mm 3 mps 760 mmHg 62%
    18:00 +10°C° 0 mm 3 mps 760 mmHg 66%
    19:00 +9°C° 0 mm 3 mps 760 mmHg 71%
    20:00 +7°C° 0 mm 3 mps 760 mmHg 76%
    21:00 +7°C° 0 mm 3 mps 760 mmHg 77%
    22:00 +7°C° 0 mm 2 mps 760 mmHg 79%
    23:00 +6°C° 0 mm 2 mps 760 mmHg 80%

    26 September, Thursday

    Time Temperature Precipitation Wind Pressure Humidity
    00:00 +6°C° 0 mm 2 mps 760 mmHg 80%
    01:00 +6°C° 0 mm 2 mps 760 mmHg 81%
    02:00 +6°C° 0 mm 2 mps 760 mmHg 81%
    03:00 +5°C° 0 mm 2 mps 761 mmHg 83%
    04:00 +5°C° 0 mm 2 mps 761 mmHg 84%
    05:00 +4°C° 0 mm 2 mps 761 mmHg 86%
    06:00 +5°C° 0 mm 2 mps 761 mmHg 83%
    07:00 +6°C° 0 mm 2 mps 761 mmHg 80%
    08:00 +5°C° 0 mm 3 mps 761 mmHg 77%
    09:00 +8°C° 0 mm 2 mps 761 mmHg 72%
    10:00 +10°C° 0 mm 2 mps 761 mmHg 66%
    11:00 +13°C° 0 mm 2 mps 762 mmHg 60%
    12:00 +14°C° 0 mm 2 mps 762 mmHg 58%
    13:00 +15°C° 0 mm 2 mps 761 mmHg 56%
    14:00 +16°C° 0 mm 2 mps 761 mmHg 53%
    15:00 +15°C° 0 mm 2 mps 761 mmHg 58%
    16:00 +15°C° 0 mm 2 mps 761 mmHg 62%
    17:00 +14°C° 0 mm 1 mps 761 mmHg 66%
    18:00 +13°C° 0 mm 1 mps 761 mmHg 72%
    19:00 +10°C° 0 mm 2 mps 762 mmHg 77%
    20:00 +9°C° 0 mm 2 mps 762 mmHg 83%
    21:00 +9°C° 0 mm 1 mps 762 mmHg 85%
    22:00 +8°C° 0 mm 1 mps 762 mmHg 87%
    23:00 +8°C° 0 mm 1 mps 762 mmHg 90%

    27 September, Friday

    Time Temperature Precipitation Wind Pressure Humidity
    00:00 +8°C° 0 mm 1 mps 762 mmHg 91%
    01:00 +7°C° 0 mm 1 mps 763 mmHg 92%
    02:00 +7°C° 0 mm 1 mps 763 mmHg 93%
    03:00 +7°C° 0 mm 1 mps 763 mmHg 93%
    04:00 +7°C° 0 mm 1 mps 763 mmHg 93%
    05:00 +6°C° 0 mm 1 mps 763 mmHg 94%
    06:00 +7°C° 0 mm 1 mps 763 mmHg 92%
    07:00 +8°C° 0 mm 1 mps 763 mmHg 89%
    08:00 +8°C° 0 mm 1 mps 763 mmHg 87%
    09:00 +10°C° 0 mm 1 mps 763 mmHg 80%
    10:00 +12°C° 0 mm 2 mps 763 mmHg 72%
    11:00 +14°C° 0 mm 2 mps 763 mmHg 65%
    12:00 +15°C° 0 mm 2 mps 763 mmHg 63%
    13:00 +16°C° 0 mm 2 mps 762 mmHg 61%
    14:00 +17°C° 0 mm 2 mps 762 mmHg 58%
    15:00 +17°C° 0 mm 2 mps 762 mmHg 63%
    16:00 +16°C° 0 mm 2 mps 762 mmHg 68%
    17:00 +16°C° 0 mm 1 mps 762 mmHg 72%
    18:00 +15°C° 0 mm 2 mps 762 mmHg 77%
    19:00 +13°C° 0 mm 2 mps 762 mmHg 83%
    20:00 +12°C° 0 mm 2 mps 762 mmHg 88%
    21:00 +10°C° 0 mm 3 mps 762 mmHg 89%
    22:00 +10°C° 0 mm 3 mps 762 mmHg 91%
    23:00 +10°C° 0 mm 3 mps 762 mmHg 92%

    28 September, Saturday

    Time Temperature Precipitation Wind Pressure Humidity
    00:00 +10°C° 0 mm 3 mps 761 mmHg 93%
    01:00 +10°C° 0 mm 3 mps 761 mmHg 94%
    02:00 +9°C° 0 mm 3 mps 761 mmHg 95%
    03:00 +9°C° 0 mm 3 mps 761 mmHg 94%
    04:00 +9°C° 0 mm 3 mps 760 mmHg 93%
    05:00 +8°C° 0 mm 4 mps 760 mmHg 93%
    06:00 +10°C° 0 mm 4 mps 760 mmHg 91%
    07:00 +10°C° 0 mm 4 mps 759 mmHg 89%
    08:00 +11°C° 0 mm 4 mps 759 mmHg 87%
    09:00 +12°C° 0.1 mm 4 mps 759 mmHg 85%
    10:00 +12°C° 0.1 mm 5 mps 759 mmHg 83%
    11:00 +13°C° 0.1 mm 5 mps 758 mmHg 81%
    12:00 +13°C° 1.1 mm 5 mps 758 mmHg 86%
    13:00 +12°C° 1.1 mm 4 mps 758 mmHg 91%
    14:00 +12°C° 1.1 mm 4 mps 757 mmHg 95%
    15:00 +12°C° 0.7 mm 4 mps 757 mmHg 95%
    16:00 +12°C° 0.7 mm 4 mps 757 mmHg 96%
    17:00 +13°C° 0.7 mm 3 mps 756 mmHg 96%
    18:00 +12°C° 0 mm 3 mps 756 mmHg 96%
    19:00 +12°C° 0 mm 3 mps 756 mmHg 97%
    20:00 +12°C° 0 mm 2 mps 756 mmHg 98%
    21:00 +12°C° 0.1 mm 2 mps 756 mmHg 97%
    22:00 +12°C° 0.1 mm 2 mps 756 mmHg 97%
    23:00 +12°C° 0.1 mm 2 mps 756 mmHg 97%
    Show more